Location: OHP
(43.9325°N, 5.7154°E)
Time: 19:30:28
(UTC+01:00)

OTV 5 (USA 277) - Visible Passes

Search period start: 24 April 2019 00:00
Search period end: 04 May 2019 00:00
Orbit: 309 x 326 km, 54.5° (Epoch: 21 April)

Date Brightness Start Highest point End Pass type
(mag) Time Alt. Az. Time Alt. Az. Time Alt. Az.
24 Apr ? 20:35:49 10° SW 20:38:31 56° SE 20:41:11 10° ENE visible
24 Apr ? 22:11:01 10° WNW 22:12:45 18° NNW 22:12:45 18° NNW visible
25 Apr ? 20:50:33 10° WSW 20:53:14 50° NW 20:55:54 10° NE visible
25 Apr ? 22:26:47 10° NW 22:28:05 13° NNW 22:28:14 12° N visible
26 Apr ? 21:05:47 10° W 21:08:05 24° NNW 21:10:24 10° NNE visible
27 Apr ? 21:21:22 10° WNW 21:23:04 15° NNW 21:24:46 10° NNE visible
28 Apr ? 21:37:18 10° NNW 21:38:09 11° N 21:38:59 10° N visible
29 Apr ? 20:16:02 10° WNW 20:18:05 18° NNW 20:20:06 10° NNE visible
30 Apr ? 20:31:48 10° NW 20:33:07 13° NNW 20:34:25 10° NNE visible
01 May ? 22:22:18 10° NNW 22:23:28 12° NNE 22:23:28 12° NNE visible
02 May ? 22:36:35 10° NNW 22:37:31 15° N 22:37:31 15° N visible
03 May ? 21:17:42 10° N 21:18:28 11° N 21:19:15 10° NNE visible
03 May ? 22:51:00 10° NW 22:51:32 14° NNW 22:51:32 14° NNW visible
